Preview of NWS' New Version of Forecast
This preview is not operational and should not be used for support decisions.
Latest weather observations around

New Orleans, New Orleans Lakefront Airport (KNEW)

Using International System of Units (Switch to English Units)
Date/ Time (CDT) Wind (kph) Vis. (km) Weather Sky Cond. Temp (°C) Rel. Humidity Wind Chill (°C) Heat Index (°C) Pressure Precip. (cm)
Air Dwpt 6 hour Altimeter (hPa) Sea level (hPa) 1 hr 3 hr 6 hr
Max Min
Sep 21 16:34 E 26 2.41 Heavy Rain and Fog/Mist FEW011 BKN055 OVC070 25 23     90%   26 1019.7   0    
Sep 21 15:53 E 26 14.48 Cloudy FEW033 BKN050 OVC070 27 23     82%   29 1019.7 1018.8 0 1  
Sep 21 15:43 E 21 4.83 Light Rain FEW030 BKN046 OVC060 26 23     82%   28 1019.3   0    
Sep 21 15:36 E 30 2.82 Heavy Rain FEW028 SCT036 OVC044 26 23     82%   28 1019.7   0    
Sep 21 15:02 E 30 16.09 Mostly Cloudy SCT017 BKN035 BKN047 27 24     85%   31 1019.7   0    
Sep 21 14:53 E 24 8.05 Light Rain BKN017 BKN033 BKN050 27 24     85%   29 1019.7 1018.9 0    
Sep 21 14:50 E 30 8.05 Light Rain BKN017 BKN035 BKN050 27 24     84%   30 1019.7   0    
Sep 21 14:14 SE 17 14.48 Light Rain SCT037 BKN060 OVC090 27 23     82%   29 1020   0    
Sep 21 14:06 SSE 28 3.22 Light Rain BKN039 BKN046 OVC075 26 23     85%   28 1020   0    
Sep 21 14:00   1.21 Heavy Rain and Fog/Mist BKN034 BKN045 OVC055 26 23     87%   26 1020.3   0    
Sep 21 13:53 SE 17 8.05 Heavy Rain and Fog/Mist BKN032 BKN039 OVC060 25 23     88%   26 1020.3 1019.7 1    
Sep 21 13:02 SE 26 8.05 Light Rain and Fog/Mist SCT034 BKN041 OVC070 26 24     90%   27 1020.7   0    
Sep 21 12:53 SE 22 1.61 Heavy Rain and Fog/Mist BKN032 OVC042 25 23     90%   26 1020.7 1020.1 1   2
Sep 21 12:49 SE 24 1.21 Heavy Rain and Fog/Mist BKN027 BKN036 OVC044 25 23     89%   26 1021   1    
Sep 21 12:35 E 26 2.82 Heavy Rain and Fog/Mist FEW027 BKN039 OVC060 26 24     90%   27 1021   0    
Sep 21 12:16 E 9 4.83 Light Rain FEW040 BKN065 OVC085 27 24     85%   29 1021   0    
Sep 21 12:07 E 13 2.82 Heavy Rain FEW038 BKN055 OVC075 26 23     82%   28 1021   0    
Sep 21 11:53 E 21 6.44 Rain FEW028 BKN060 OVC090 27 24     85%   29 1021 1020.4 0    
Sep 21 11:07 E 17 6.44 Rain and Fog/Mist FEW021 BKN055 OVC075 26 23     87%   26 1021.7   0    
Sep 21 11:00 ESE 21 3.22 Light Rain and Fog/Mist SCT019 BKN041 OVC070 25 23     88%   26 1021.7   0    
Sep 21 10:53 ESE 13 1.21 Heavy Rain and Fog/Mist SCT019 SCT032 BKN043 24 22     88%   25 1021.7 1020.9 1    
Sep 21 10:46 SE 18 1.21 Heavy Rain and Fog/Mist FEW017 SCT031 BKN043 24 22     88%   25 1021.7   0    
Sep 21 10:43   2.41 Heavy Rain FEW017 SCT031 SCT041 26 22     82%   26 1021.7   0    
Sep 21 09:53 ENE 22 16.09 Mostly Cloudy FEW035 SCT046 BKN050 27 24     82%   30 1021.3 1020.6 0 0  
Sep 21 09:20 ENE 24 16.09 Partly Cloudy SCT020 SCT049 27 23     82%   29 1021.3   0    
Sep 21 09:12 ENE 21 16.09 Mostly Cloudy BKN020 BKN049 27 23     82%   29 1021.3   0    
Sep 21 08:53 ENE 24 16.09 Partly Cloudy SCT022 26 23     85%   28 1021 1020.3      
Sep 21 08:21 ENE 22 16.09 Mostly Cloudy SCT027 BKN038 27 23     82%   29 1020.7        
Sep 21 07:53 ENE 22 16.09 Cloudy FEW022 BKN028 OVC038 26 23     82%   28 1020.3 1019.8      
Sep 21 07:44 ESE 11 16.09 Cloudy FEW022 BKN028 OVC037 27 23     79%   29 1020.3        
Sep 21 06:53 ESE 17 16.09 Mostly Cloudy SCT036 BKN046 28 23     74%   31 1020 1019.3      
Sep 21 05:53 ESE 9 16.09 Clear CLR 27 22     76%   29 1019.7 1019      
Sep 21 04:53 ESE 11 16.09 Clear CLR 27 22     74%   30 1019.3 1018.7      
Sep 21 03:53 ESE 17 16.09 Clear CLR 27 22     72%   29 1019.3 1018.5      
Sep 21 02:53 ESE 15 16.09 Clear CLR 27 22     74%   30 1019.3 1018.6      
Sep 21 01:53 ESE 17 16.09 Clear CLR 27 22     74%   30 1019.7 1018.9      
Sep 21 00:53 ESE 13 16.09 Clear CLR 27 22     72%   29 1019.7 1019      
Sep 20 23:53 ESE 17 16.09 Clear CLR 27 21     69%   29 1019.7 1019.1      
Sep 20 22:53 ESE 17 16.09 Clear CLR 27 21     69%   29 1020.3 1019.5      
Sep 20 21:53 ESE 22 16.09 Clear CLR 27 21     69%   29 1020 1019.2      
Sep 20 20:53 ESE 17 16.09 Clear CLR 27 21     69%   29 1019.7 1019      
Sep 20 19:53 ESE 21 16.09 Mostly Clear FEW036 28 21     67%   30 1019 1018.4      
Sep 20 18:53 ESE 26 16.09 Clear   28 22     67%   31 1019 1018.2      
Sep 20 17:53 E 28 16.09 Partly Cloudy SCT033 28 22     67%   31 1019 1018.1      
Sep 20 16:53 E 35 16.09 Clear and Windy   29 22     65%   32 1018.6 1017.9      
Sep 20 15:53 E 28 16.09 Mostly Cloudy FEW033 SCT043 BKN080 30 22     61%   33 1018.6 1017.9      
Sep 20 14:53 E 26 16.09 Partly Cloudy FEW035 SCT049 SCT075 31 22     59%   34 1019 1018.3      
Sep 20 13:53 E 30 16.09 Mostly Clear FEW043 31 19     51%   32 1019 1018.4      
Sep 20 12:53 ESE 30 16.09 Mostly Clear FEW038 31 21     55%   33 1019.7 1019     0
Sep 20 11:53 E 30 16.09 Mostly Clear FEW033 30 21     57%   32 1020 1019.4      
Sep 20 10:53 ESE 28 16.09 Mostly Cloudy FEW034 SCT060 BKN070 30 21     59%   33 1020 1019.3 0    
Sep 20 09:53 E 28 16.09 Mostly Clear FEW025 29 21     59%   32 1020 1019.1      
Sep 20 08:53 ESE 26 16.09 Mostly Clear FEW070 29 20     59%   31 1019.3 1018.5      
Sep 20 07:53 ESE 17 16.09 Partly Cloudy SCT065 SCT075 28 22     72%   30 1018.6 1017.9      
Sep 20 06:53 ESE 11 16.09 Clear CLR 26 22     79%   28 1018 1017.3     4
Sep 20 05:53 SE 11 16.09 Clear CLR 26 22     82%   26 1018 1017.2      
Sep 20 04:53 SE 9 14.48 Clear CLR 25 23     88%   26 1017.3 1016.7      
Sep 20 03:53 SSE 22 16.09 Mostly Clear FEW044 24 22     88%   25 1016.9 1016.1   4  
Sep 20 02:53 SE 13 14.48 Clear CLR 26 24     90%   27 1016.9 1016.1 0    
Sep 20 01:53 SE 9 14.48 Light Rain SCT026 BKN070 BKN100 24 22     88%   25 1017.3 1016.7 4    
Sep 20 01:51 SE 11 12.87 Light Rain SCT024 BKN070 BKN100 24 22     89%   25 1017.3   4    
Sep 20 01:44 SSE 9 4.83 Thunderstorms and Rain and Fog/Mist BKN026 OVC070 24 22     90%   25 1017.3   4    
Sep 20 01:37 S 8 1.61 Thunderstorms and Heavy Rain and Fog/Mist BKN021 OVC028 24 22     90%   25 1017.6   4    
Sep 20 01:34 SE 9 1.21 Thunderstorms and Heavy Rain and Fog/Mist BKN014 OVC026 24 22     90%   25 1017.6   4    
Sep 20 01:27 ESE 28 0.4 Thunderstorms and Heavy Rain and Fog BKN010 BKN028 OVC046 24 23     94%   25 1018   3    
Sep 20 01:07 ENE 33 2.82 Thunderstorms and Heavy Rain SCT020 BKN028 OVC090 26 23     85%   26 1017.3   0    
Sep 20 00:55 ENE 32 16.09 Thunderstorms and Rain BKN022 27 23     82%   29 1017.3   0    
Sep 20 00:53 ENE 33 16.09 Light Rain SCT019 BKN026 26 23     85%   28 1017.3 1016.7 0   0
Sep 20 00:28 ESE 17 16.09 Clear CLR 28 24     79%   32 1016.9        
Sep 19 23:53 ESE 17 16.09 Clear CLR 28 24     79%   32 1016.9 1016.1      
Sep 19 22:53 SE 21 16.09 Clear CLR 28 24     77%   32 1016.9 1016.3      
Sep 19 21:53 ESE 15 16.09 Clear CLR 28 23     74%   32 1016.9 1016.4      
Sep 19 20:53 ESE 15 16.09 Clear CLR 29 24     74%   33 1016.9 1016.3      
Sep 19 19:53 SE 18 16.09 Clear CLR 29 23     70%   32 1015.9 1015.3      
Sep 19 18:53 ESE 18 16.09 Clear CLR 29 23     68%   33 1015.6 1015      
Sep 19 17:53 SE 15 16.09 Clear CLR 31 19     50%   33 1015.2 1014.6      
Sep 19 16:53 SE 18 16.09 Clear CLR 32 19     47%   33 1015.2 1014.4      
Sep 19 15:53 SE 18 16.09 Clear CLR 32 19     48%   33 1014.6 1014      
Sep 19 14:53 ESE 17 16.09 Clear CLR 33 19     45%   35 1014.9 1014.3      
Sep 19 13:53 SSE 13 16.09 Partly Cloudy SCT038 SCT047 32 22     56%   36 1015.2 1014.6      
Sep 19 12:53 E 17 16.09 Partly Cloudy SCT033 32 23     61%   37 1015.9 1015.2      
Sep 19 11:53 ESE 11 16.09 Partly Cloudy SCT033 32 22     57%   36 1016.3 1015.7      
Sep 19 10:53 ESE 11 16.09 Mostly Cloudy FEW028 BKN039 30 23     67%   34 1016.6 1016      
Sep 19 09:53 E 8 16.09 Partly Cloudy SCT030 30 24     70%   35 1016.6 1015.8      
Sep 19 08:53 ESE 5 16.09 Clear CLR 28 24     77%   32 1015.9 1015.3      
Sep 19 07:53 ESE 8 16.09 Clear CLR 27 24     82%   30 1015.2 1014.7      
Sep 19 06:53 E 9 16.09 Mostly Clear FEW015 27 23     82%   29 1015.2 1014.5      
Sep 19 05:53 E 15 16.09 Mostly Cloudy BKN015 27 24     85%   29 1014.9 1014.1      
Sep 19 05:50 E 15 16.09 Mostly Cloudy BKN015 27 24     84%   30 1014.6        
Sep 19 04:53 E 11 16.09 Cloudy BKN014 OVC019 27 24     82%   30 1014.2 1013.6      
Sep 19 04:38 ENE 5 16.09 Mostly Cloudy BKN018 27 24     82%   30 1014.2        
Sep 19 03:53 E 13 16.09 Clear CLR 27 24     85%   31 1013.6 1013      
Sep 19 02:53 E 5 16.09 Clear CLR 27 24     85%   31 1013.9 1013.3      
Sep 19 01:53 E 5 16.09 Clear CLR 27 24     85%   31 1013.9 1013.3      
Sep 19 00:53 Calm 16.09 Clear CLR 28 24     82%   32 1014.6 1013.9     0
Sep 18 23:53 Calm 16.09 Clear CLR 28 24     82%   32 1014.9 1014.1      
Sep 18 22:53 WNW 5 16.09 Clear CLR 28 24     77%   32 1015.2 1014.4      
Sep 18 21:53 WNW 5 16.09 Clear CLR 28 24     79%   32 1015.2 1014.5   0  
Sep 18 20:53 NW 5 16.09 Clear CLR 28 24     79%   32 1014.9 1014.2      
Sep 18 19:53 NW 17 16.09 Clear CLR 28 24     82%   32 1014.6 1013.8 0    
Sep 18 18:53 WNW 8 16.09 Light Rain FEW065 BKN090 OVC110 28 23     74%   31 1014.6 1014 0   0
Sep 18 18:44 W 5 9.66 Light Rain FEW065 BKN080 OVC110 27 23     77%   30 1014.9   0    
Sep 18 18:30 W 18 4.02 Rain FEW030 BKN070 OVC090 26 23     82%   28 1014.9   0    
Sep 18 18:11   2.82 Thunderstorms and Rain BKN030 OVC037 27 23     82%   29 1014.2   0    
Sep 18 17:53 WNW 13 16.09 Thunderstorms BKN040 29 23     70%   34 1014.6 1014      
Sep 18 17:16 SE 11 16.09 Thunderstorms CLR 32 21     52%   35 1014.2        
Sep 18 16:53 SE 15 16.09 Mostly Clear FEW030 33 19     44%   34 1014.2 1013.4      
Sep 18 15:53 SE 13 16.09 Clear CLR 34 18     38%   35 1013.6 1012.9      
Sep 18 14:53 ESE 11 16.09 Mostly Clear FEW030 33 21     49%   37 1014.2 1013.5      
Sep 18 13:53 NNE 17 16.09 Clear CLR 32 24     62%   38 1014.9 1014.3      
May 14 17:53 WNW 5 11.27 Clear CLR 31 22     57%   34 1012.2 1011.6      
May 13 08:53 NNE 8 12.87 Clear CLR 27 22     74%   29 1020 1019.1      
May 12 01:53 SE 11 16.09 Clear CLR 24 21     82%   24 1018 1017.2      
May 11 21:53 SE 15 16.09 Clear CLR 26 18     64%   26 1018.6 1017.8      
Jun 11 19:39 SE 13 12.87 Cloudy FEW027 BKN033 OVC055 26 25     96%   27 1016.6   0    
Jun 11 19:17 SE 17 6.44 Light Rain and Fog/Mist FEW022 BKN030 OVC041 26 24     93%   27 1016.9   0    
Notice The following observation data may not be complete
Jun 11 17:02   16.09 Light Rain FEW019 BKN027 OVC065          %         0    
Jun 11 14:53 SE 32 2.41 Heavy Rain and Fog/Mist SCT020 SCT032 BKN055 28 26     88%   33 1016.6 1016 0    
Jun 11 12:17 SE 28 16.09 Mostly Clear FEW025 31 24     68%   36 1017.3        
Jun 09 22:53 S 11 16.09 Clear CLR 24 20     76%   25 1013.9 1013.3      
Jun 07 23:53 NNE 24 16.09 Clear CLR 25 18     64%   25 1011.2 1010.5      
Jun 07 10:53 N 26 16.09 Partly Cloudy FEW019 SCT023 27 22     74%   29 1009.5 1008.7      
Jun 06 07:53 NNE 8 16.09 Cloudy FEW027 BKN033 OVC044 26 23     82%   28 1005.8 1005.1      
Jun 06 05:53 NE 5 16.09 Cloudy OVC023 25 22     84%   26 1005.8 1005      
Jun 06 02:53 Calm 16.09 Mostly Clear FEW024 24 22     90%   25 1005.8 1005.2      
Jun 05 18:53 ENE 13 16.09 Mostly Cloudy BKN017 BKN026 BKN100 26 23     85%   28 1006.1 1005.3     0